Location: Napier
(39.4830°S, 176.9170°E)
Time: 19:16:43
(UTC+13:00)

CZ-2D R/B - Pass Details

Date: 24 January 2019
Orbit: 521 x 540 km, 97.4° (Epoch: 16 February)

Event Time Altitude Azimuth Distance (km) Brightness Sun altitude
Rises 21:22:21 0° 173° (S) 2,737 7.3 -8.6°
Reaches altitude 10° 21:24:31 10° 177° (S) 1,837 6.4 -8.9°
Maximum altitude 21:28:25 57° 255° (WSW) 650 4.1 -9.6°
Drops below altitude 10° 21:32:16 10° 334° (NNW) 1,811 5.9 -10.2°
Sets 21:34:23 0° 337° (NNW) 2,694 6.7 -10.5°
